1998-067HQ

Last updated on Feb. 14, 2016, 1:35 a.m. UTC

1 41314U 98067HQ  16044.86229509  .00039057  00000-0  56808-3 0  9993
2 41314  51.6376 317.9731 0006490 114.5834 245.5835 15.55346525  2150

Satellite is not in orbit.